Tracking 30995 objects as of 5-Jul-2025
HD Live streaming from Space Station
objects crossing your sky now

ONEWEB-0691

Track ONEWEB-0691 now!
10-day predictions
ONEWEB-0691 is classified as:


NORAD ID: 61599
Int'l Code: 2024-188F
Perigee: 1,223.7 km
Apogee: 1,226.0 km
Inclination: 87.9 °
Period: 109.8 minutes
Semi major axis: 7595 km
RCS: Unknown
Launch date: October 20, 2024
Source: United States (US)
Launch site: AIR FORCE WESTERN TEST RANGE (AFWTR)
Your satellite tracking list
STARLINK-3730
Track 1 satellite(s)




NASA's NSSDC Master Catalog

Two Line Element Set (TLE):
1 61599U 24188F   25186.27445023  .00000233  00000-0  62131-3 0  9996
2 61599  87.8746  90.1938 0001538  83.1223 277.0080 13.11414311 39015
Source of the keplerian elements: AFSPC